Weather History for Rochelle, IL

Change the Weather History Date:

Friday, March 28, 2014

  Actual Average (KRFD) Record (KRFD)
Temperature  
Mean Temperature 42 °F 42 °F  
Max Temperature 44 °F 53 °F 79 °F (1910)
Min Temperature 34 °F 32 °F 8 °F (1970)
Degree Days  
Heating Degree Days 22 23  
Month to date heating degree days 797  
Since 1 July heating degree days 5799  
Cooling Degree Days 0 0  
Month to date cooling degree days 0  
Year to date cooling degree days 0  
Moisture  
Dew Point 34 °F    
Average Humidity 85    
Maximum Humidity 95    
Minimum Humidity 75    
Precipitation  
Precipitation 0.09 in 0.09 in 1.60 in (1931)
Month to date precipitation 2.04  
Year to date precipitation 4.82  
Snow  
Snow 0.00 in 0.10 in 3.90 in (1975)
Month to date snowfall 4.5  
Since 1 July snowfall 35.5  
Snow Depth -    
Sea Level Pressure  
Sea Level Pressure 29.92 in    
Wind  
Wind Speed 15 mph (NW)    
Max Wind Speed 31 mph    
Max Gust Speed 40 mph    
Visibility 9 miles    
Events Rain    
T = Trace of Precipitation, MM = Missing Value Source: NWS Daily Summary

Daily Weather History Graph

Daily Weather History Graph

Search for Another Location

Airport:

Trip Planner

Search our weather history database for the weather conditions in past years. The results will help you decide how hot, cold, wet, or windy it might be!

Date:

Astronomy

Mar. 28, 2014 Rise Set
Actual Time 6:45 AM CDT 7:17 PM CDT
Civil Twilight 6:17 AM CDT 7:45 PM CDT
Nautical Twilight 5:44 AM CDT 8:18 PM CDT
Astronomical Twilight 5:11 AM CDT 8:52 PM CDT
Moon 5:18 AM CDT (3/28) 5:12 PM CDT (3/28)
Length of Visible Light 13h 27m
Length of Day
12h 31m
Waning Crescent, 6% of the Moon is Illuminated
Mar 28
Waning Crescent
Mar 30
New
Apr 7
First Quarter
Apr 15
Full
Apr 22
Last Quarter

Hourly Weather History & Observations

Time (CDT) Temp. Windchill Dew Point Humidity Pressure Visibility Wind Dir Wind Speed Gust Speed Precip Events Conditions
12:15 AM 50.0 °F - 45.9 °F 86% 29.41 in 10.0 mi SW 31.1 mph 40.3 mph N/A   Overcast
12:35 AM 46.4 °F 38.1 °F 42.3 °F 85% 29.44 in 10.0 mi WSW 24.2 mph 29.9 mph N/A   Overcast
12:55 AM 44.4 °F 35.1 °F 41.0 °F 88% 29.46 in 10.0 mi WSW 26.5 mph 36.8 mph N/A   Overcast
1:15 AM 43.0 °F 34.8 °F 40.5 °F 91% 29.46 in 3.0 mi WSW 18.4 mph 33.4 mph N/A   Overcast
1:35 AM 42.3 °F 33.1 °F 40.3 °F 93% 29.46 in 3.0 mi WSW 21.9 mph 28.8 mph N/A   Drizzle
1:55 AM 42.1 °F 33.9 °F 40.3 °F 93% 29.47 in 3.0 mi SW 17.3 mph 25.3 mph N/A   Overcast
2:15 AM 41.9 °F 33.7 °F 40.3 °F 94% 29.48 in 4.0 mi WSW 17.3 mph 25.3 mph N/A   Overcast
2:35 AM 41.5 °F 33.2 °F 40.1 °F 95% 29.48 in 2.5 mi WSW 17.3 mph 23.0 mph N/A   Overcast
2:55 AM 41.5 °F 33.2 °F 40.1 °F 95% 29.49 in 3.0 mi WSW 17.3 mph 23.0 mph N/A   Overcast
3:15 AM 41.9 °F 34.3 °F 40.5 °F 95% 29.51 in 2.0 mi WSW 15.0 mph - N/A   Overcast
3:35 AM 41.9 °F 35.0 °F 40.6 °F 95% 29.52 in 3.0 mi West 12.7 mph - N/A   Overcast
3:55 AM 42.4 °F 34.1 °F 41.2 °F 95% 29.54 in 7.0 mi NW 18.4 mph 25.3 mph N/A   Overcast
4:15 AM 41.9 °F 33.4 °F 40.5 °F 95% 29.58 in 5.0 mi NW 18.4 mph 28.8 mph N/A Rain Rain
4:35 AM 40.5 °F 31.5 °F 39.0 °F 95% 29.61 in 10.0 mi NW 18.4 mph 26.5 mph N/A Rain Light Rain
4:55 AM 38.8 °F 28.3 °F 36.7 °F 92% 29.64 in 7.0 mi NW 23.0 mph 28.8 mph N/A Rain Rain
5:15 AM 37.6 °F 27.4 °F 35.6 °F 93% 29.67 in 10.0 mi NW 19.6 mph 24.2 mph N/A   Drizzle
5:35 AM 37.0 °F 26.7 °F 34.9 °F 92% 29.69 in 7.0 mi NW 19.6 mph 25.3 mph N/A   Drizzle
5:55 AM 36.5 °F 26.3 °F 34.3 °F 92% 29.72 in 10.0 mi NW 18.4 mph 25.3 mph N/A Rain Light Rain
6:15 AM 35.8 °F 26.1 °F 33.8 °F 92% 29.75 in 10.0 mi NW 16.1 mph 19.6 mph N/A Rain Light Rain
6:35 AM 36.0 °F 26.3 °F 34.2 °F 93% 29.78 in 10.0 mi NW 16.1 mph 21.9 mph N/A   Overcast
6:55 AM 36.5 °F 27.4 °F 34.3 °F 92% 29.80 in 10.0 mi NW 15.0 mph 25.3 mph N/A   Overcast
7:15 AM 36.7 °F 28.0 °F 34.2 °F 91% - 10.0 mi NNW 13.8 mph 18.4 mph N/A   Overcast
7:35 AM 36.7 °F 28.9 °F 34.0 °F 90% 29.84 in 10.0 mi NW 11.5 mph 17.3 mph N/A   Overcast
7:55 AM 36.9 °F 29.6 °F 34.2 °F 90% 29.86 in 10.0 mi NW 10.4 mph - N/A   Overcast
8:15 AM 37.0 °F 28.9 °F 34.3 °F 90% 29.89 in 10.0 mi NW 12.7 mph 17.3 mph N/A   Overcast
8:35 AM 37.0 °F 28.9 °F 34.0 °F 89% 29.91 in 10.0 mi NW 12.7 mph 19.6 mph N/A   Overcast
8:55 AM 36.7 °F 28.4 °F 33.1 °F 87% 29.92 in 10.0 mi NNW 12.7 mph 18.4 mph N/A   Overcast
9:15 AM 36.7 °F 28.0 °F 32.9 °F 86% 29.92 in 10.0 mi NNW 13.8 mph 21.9 mph N/A   Overcast
9:35 AM 36.9 °F 27.5 °F 32.2 °F 83% 29.95 in 10.0 mi NNW 16.1 mph - N/A   Overcast
9:55 AM 36.9 °F 28.7 °F 32.0 °F 83% 29.96 in 10.0 mi North 12.7 mph 21.9 mph N/A   Overcast
10:15 AM 37.0 °F 28.9 °F 32.0 °F 82% 29.97 in 10.0 mi North 12.7 mph - N/A   Overcast
10:35 AM 36.5 °F 28.2 °F 31.8 °F 83% 29.99 in 10.0 mi NNW 12.7 mph 17.3 mph N/A   Overcast
10:55 AM 36.3 °F 28.4 °F 31.5 °F 83% 30.00 in 10.0 mi NNW 11.5 mph - N/A   Overcast
11:15 AM 36.5 °F 29.2 °F 31.3 °F 81% 29.99 in 10.0 mi NNW 10.4 mph - N/A   Overcast
11:35 AM 36.5 °F 28.7 °F 31.5 °F 82% 30.00 in 10.0 mi NNW 11.5 mph 17.3 mph N/A   Overcast
11:55 AM 36.7 °F 29.9 °F 31.6 °F 82% 30.01 in 10.0 mi North 9.2 mph - N/A   Overcast
12:15 PM 36.9 °F 30.7 °F 31.5 °F 81% 30.01 in 10.0 mi North 8.1 mph - N/A   Overcast
12:35 PM 36.9 °F 32.2 °F 31.3 °F 80% 30.03 in 10.0 mi NNW 5.8 mph - N/A   Overcast
12:55 PM 37.4 °F 32.8 °F 31.5 °F 79% 30.05 in 10.0 mi North 5.8 mph - N/A   Overcast
1:15 PM 37.6 °F - 31.6 °F 79% 30.06 in 10.0 mi Calm Calm - N/A   Overcast
1:35 PM 38.5 °F - 31.6 °F 76% 30.08 in 10.0 mi Calm Calm - N/A   Overcast
1:55 PM 38.3 °F - 31.3 °F 76% 30.09 in 10.0 mi Calm Calm - N/A   Overcast
2:15 PM 38.3 °F 35.9 °F 31.6 °F 77% 30.10 in 10.0 mi SW 3.5 mph - N/A   Overcast
2:35 PM 38.5 °F 35.0 °F 31.6 °F 76% 30.10 in 10.0 mi WSW 4.6 mph - N/A   Overcast
2:55 PM 38.5 °F 36.1 °F 31.8 °F 77% 30.09 in 10.0 mi West 3.5 mph - N/A   Overcast
3:15 PM 38.7 °F - 32.0 °F 77% 30.09 in 10.0 mi Calm Calm - N/A   Overcast
3:35 PM 39.2 °F 37.0 °F 31.8 °F 75% 30.11 in 10.0 mi WNW 3.5 mph - N/A   Overcast
3:55 PM 39.2 °F - 31.8 °F 75% 30.11 in 10.0 mi Calm Calm - N/A   Overcast
4:15 PM 39.2 °F - 32.0 °F 75% 30.11 in 10.0 mi Calm Calm - N/A   Overcast
4:35 PM 39.2 °F - 31.8 °F 75% 30.11 in 10.0 mi Calm Calm - N/A   Overcast
4:55 PM 39.0 °F - 31.8 °F 75% 30.11 in 10.0 mi Calm Calm - N/A   Overcast
5:15 PM 38.8 °F - 31.5 °F 75% 30.11 in 10.0 mi Calm Calm - N/A   Overcast
5:35 PM 38.7 °F - 31.8 °F 76% 30.12 in 10.0 mi Calm Calm - N/A   Overcast
5:55 PM 38.3 °F - 31.8 °F 77% 30.12 in 10.0 mi Calm Calm - N/A   Overcast
6:15 PM 38.3 °F - 32.0 °F 78% 30.14 in 10.0 mi Calm Calm - N/A   Overcast
6:35 PM 38.1 °F - 31.1 °F 76% 30.16 in 10.0 mi Calm Calm - N/A   Overcast
6:55 PM 37.9 °F - 31.5 °F 77% 30.15 in 10.0 mi Calm Calm - N/A   Overcast
7:15 PM 37.6 °F - 32.0 °F 80% 30.15 in 10.0 mi Calm Calm - N/A   Overcast
7:35 PM 37.4 °F - 32.0 °F 81% 30.15 in 10.0 mi Calm Calm - N/A   Overcast
7:55 PM 37.0 °F 33.3 °F 32.0 °F 82% 30.14 in 10.0 mi NNE 4.6 mph - N/A   Overcast
8:15 PM 36.7 °F 32.0 °F 32.0 °F 83% 30.14 in 10.0 mi NNE 5.8 mph - N/A   Overcast
8:35 PM 36.7 °F 32.0 °F 32.0 °F 83% 30.14 in 10.0 mi NNE 5.8 mph - N/A   Overcast
8:55 PM 36.5 °F 32.7 °F 32.0 °F 84% 30.14 in 10.0 mi NNE 4.6 mph - N/A   Overcast
9:15 PM 36.5 °F 32.7 °F 32.0 °F 84% 30.14 in 10.0 mi NNE 4.6 mph - N/A   Overcast
9:35 PM 36.1 °F 30.6 °F 32.0 °F 85% 30.13 in 10.0 mi NNE 6.9 mph - N/A   Overcast
9:55 PM 36.3 °F 30.1 °F 32.0 °F 84% 30.13 in 7.0 mi NE 8.1 mph - N/A   Overcast
10:15 PM 36.0 °F 32.1 °F 32.0 °F 86% 30.14 in 7.0 mi ENE 4.6 mph - N/A   Overcast
10:35 PM 35.6 °F 31.7 °F 32.0 °F 87% 30.14 in 7.0 mi NE 4.6 mph - N/A   Overcast
10:55 PM 35.6 °F 30.7 °F 32.0 °F 87% 30.15 in 7.0 mi ENE 5.8 mph - N/A   Overcast
11:15 PM 35.6 °F 29.2 °F 31.8 °F 86% 30.17 in 7.0 mi ESE 8.1 mph - N/A   Overcast
11:35 PM 35.2 °F 28.8 °F 32.0 °F 88% 30.17 in 5.0 mi East 8.1 mph - N/A   Overcast
11:55 PM 34.7 °F 28.1 °F 32.0 °F 90% 30.18 in 5.0 mi ESE 8.1 mph - N/A   Overcast